User: anonymous   Login
Location: Unspecified
(0.0000°N, 0.0000°E)
Time: 23:59:04
(UTC+01:00)
Language:

Iridium 39 - Orbit

View from above orbital plane
View from above orbital plane
View from above satellite
View from above satellite

Ground track
Ground track

The orbit data is extracted from the following two-line orbital elements,

1 25042U 97069D   15027.52385095  .00000040  00000-0  71735-5 0  1484
2 25042 086.3948 026.5058 0002083 108.5590 251.5832 14.34227431901377
Epoch (UTC): 27 January 2015 12:34:20
Eccentricity: 0.0002083
inclination: 86.3948°
perigee height: 776 km
apogee height: 779 km
right ascension of ascending node: 26.5058°
argument of perigee: 108.5590°
revolutions per day: 14.34227431
mean anomaly at epoch: 251.5832°
orbit number at epoch: 90137

The dashed part of the orbit path shows where the satellite is in the earth's shadow,  

DLR